[Date Prev][Date Next][Thread Prev][Thread Next] - [Date Index][Thread Index][Author Index]

2 Line ISS Keps 12-26



ISS
1 25544U 98067A   05360.00361764  .00013619  00000-0  10019-3 0   233
2 25544 051.6448 357.7776 0010829 080.7092 012.5276 15.73367455405871
----
Via the sarex mailing list at AMSAT.ORG courtesy of AMSAT-NA.
To unsubscribe, send "unsubscribe sarex" to Majordomo@amsat.org



AMSAT Top AMSAT Home